Location: Maccacari
(45.1333°N, 11.1333°E)
Time: 15:04:57
(UTC+00:00)

S-56A Canister/Altair - Pass Details

Date: 29 January 2021
Orbit: 631 x 2501 km, 38.9° (Epoch: 01 March)

Event Time Altitude Azimuth Distance (km) Brightness Sun altitude
Rises 23:47:30 0° 232° (SW) 3,696 - -62.2°
Reaches altitude 10° 23:50:46 10° 222° (SW) 2,495 - -62.1°
Maximum altitude 23:55:28 28° 165° (SSE) 1,336 - -62.0°
Drops below altitude 10° 23:59:22 10° 105° (ESE) 2,051 - -61.8°
Sets 00:01:47 0° 93° (E) 2,919 - -61.7°
